Flag for U.S.A. Weather past 2 weeks in Columbus, Ohio, U.S.A.

Now
79 °F

Passing clouds.


Feels Like: 82 °F
Forecast: 66 / 79 °F
Wind: 5 mph from South

Location: Port Columbus International Airport

Current Time: Jul 23, 2014 at 2:23:51 AM

Latest Report: Jul 23, 2014 at 12:51 AM


Visibility: 8 mi

Pressure: 29.99 "Hg

Humidity: 74%

Dew point: 70 °F

Location of ColumbusLocation

Historic Weather in Columbus — Graph

°F

Columbus temperature yesterday

Maximum temperature yesterday: 89 °F (at 12:51 PM)
Minimum temperature yesterday: 70 °F (at 3:51 AM)
Average temperature yesterday: 79 °F

Past Weeks' High & Low Weather Summary

 TemperatureHumidityPressure
High89 °F (Jul 13, 3:51 PM)94% (Jul 14, 4:00 AM)30.21 "Hg (Jul 14, 4:00 AM)
Low55 °F (Jul 17, 4:51 AM)33% (Jul 11, 4:51 PM)29.69 "Hg (Jul 8, 10:51 AM)
Average74 °F65%30.01 "Hg
* Reported Jul 8 12:51 AM — Jul 23 12:51 AM, Columbus, Weather by CustomWeather, © 2014

Note: Actual official high and low records may vary slightly from our data, if they occured in-between our weather recording intervals... More about our weather records

Advertising

Columbus weather history for previous 24 hours

 ConditionsComfort  
Time TempWeatherWind HumidityBarometerVisibility
12:51 AM
Jul 23
79 °FPassing clouds.5 mph74%29.99 "Hg8 mi
11:51 PM
Jul 22
81 °FClear.3 mph69%29.99 "Hg9 mi
10:51 PM82 °FPassing clouds.3 mph67%30.00 "Hg9 mi
9:51 PM84 °FSunny.3 mph61%30.00 "Hg10 mi
8:51 PM86 °FSunny.6 mph55%29.99 "Hg10 mi
7:51 PM89 °FPassing clouds.8 mph46%30.00 "Hg10 mi
12:51 PM89 °FScattered clouds.8 mph48%30.06 "Hg9 mi
11:51 AM87 °FScattered clouds.5 mph53%30.08 "Hg10 mi
10:51 AM84 °FPassing clouds.No wind61%30.10 "Hg10 mi
9:51 AM82 °FSunny.3 mph65%30.10 "Hg10 mi
8:51 AM79 °FSunny.No wind69%30.12 "Hg7 mi
7:51 AM75 °FSunny.No wind79%30.11 "Hg5 mi
6:51 AM71 °FHaze.No wind84%30.10 "Hg6 mi
5:51 AM70 °FClear.No wind84%30.09 "Hg6 mi
4:51 AM71 °FClear.No wind84%30.08 "Hg5 mi
3:51 AM70 °FFog.No wind87%30.08 "Hg6 mi
2:51 AM72 °FClear.No wind84%30.08 "Hg6 mi
Weather by CustomWeather, © 2014

See weather overviewHow to use our weather pages